CW0262 Weather Reports


Display with metric or nautical units.
time (UTC)temp
F
wind
direction
speed
MPH
gust
MPH
rain 1hr
in
rain 24hr
in
rain mn
in
humidity
%
barometer
mb
20260903191704 87 113 6.0 8.0 0.00 0.28 0.28 89 1012.9
20260903191203 87 104 7.0 9.0 0.00 0.28 0.28 89 1012.9
20260903190704 87 98 7.0 8.0 0.00 0.28 0.28 89 1012.9
20260903190204 87 88 5.0 8.0 0.00 0.28 0.28 90 1012.9
20260903184704 87 107 6.0 8.0 0.00 0.28 0.28 90 1012.9
20260903184203 87 99 6.0 9.0 0.00 0.28 0.28 90 1012.9
20260903183704 87 90 6.0 9.0 0.00 0.28 0.28 90 1012.9
20260903183203 87 96 7.0 10.0 0.00 0.28 0.28 88 1012.9
20260903181703 87 84 6.0 8.0 0.00 0.28 0.28 91 1012.9
20260903181204 87 102 7.0 9.0 0.00 0.28 0.28 91 1012.9
20260903174204 87 130 6.0 10.0 0.00 0.28 0.28 89 1013.9
20260903173703 87 120 5.0 13.0 0.00 0.28 0.28 89 1013.9
20260903173204 87 121 7.0 9.0 0.00 0.28 0.28 89 1013.9
20260903171704 87 101 5.0 6.0 0.00 0.28 0.28 92 1013.9
20260903171203 86 109 3.0 6.0 0.00 0.28 0.28 96 1013.9
20260903170703 86 95 3.0 6.0 0.00 0.28 0.28 94 1013.9
20260903170204 86 115 2.0 8.0 0.00 0.28 0.28 92 1013.9
20260903164703 87 102 6.0 8.0 0.00 0.28 0.28 86 1013.9
20260903163704 88 91 8.0 12.0 0.00 0.28 0.28 87 1013.9
20260903163204 89 108 6.0 8.0 0.00 0.28 0.28 83 1014.9
20260903161704 90 134 5.0 8.0 0.00 0.28 0.28 78 1013.9
20260903161204 90 146 2.0 6.0 0.00 0.28 0.28 76 1013.9
20260903160704 90 179 6.0 8.0 0.00 0.28 0.28 78 1013.9
20260903160204 90 205 3.0 6.0 0.00 0.28 0.28 82 1014.9
20260903154704 89 176 6.0 8.0 0.00 0.28 0.28 81 1014.9
20260903154204 89 174 3.0 8.0 0.00 0.28 0.28 81 1014.9
20260903153704 89 249 3.0 6.0 0.00 0.31 0.28 84 1014.9
20260903153204 89 204 1.0 8.0 0.00 0.31 0.28 84 1014.9
20260903151703 88 161 6.0 8.0 0.00 0.31 0.28 85 1014.9
20260903151204 88 154 5.0 8.0 0.00 0.31 0.28 86 1014.9
20260903150704 88 161 6.0 8.0 0.00 0.31 0.28 86 1014.9
20260903150204 88 165 4.0 8.0 0.00 0.31 0.28 88 1014.9
20260903144203 87 198 5.0 8.0 0.00 0.31 0.28 90 1014.9
20260903143703 87 155 4.0 6.0 0.00 0.31 0.28 92 1014.9
20260903141204 85 231 3.0 6.0 0.00 0.31 0.28 97 1013.9
20260903140704 85 232 5.0 6.0 0.00 0.31 0.28 97 1013.9
20260903140204 85 224 3.0 6.0 0.00 0.31 0.28 96 1013.9
20260903134704 84 121 0.0 2.0 0.00 0.31 0.28 99 1013.9
20260903134204 84 217 2.0 3.0 0.00 0.31 0.28 99 1013.9
20260903133204 83 208 0.0 3.0 0.00 0.31 0.28 100 1013.9
20260903131704 82 147 2.0 3.0 0.00 0.31 0.28 100 1013.9
20260903130704 81 208 1.0 5.0 0.00 0.31 0.28 100 1013.9
20260903130204 81 232 0.0 3.0 0.00 0.31 0.28 100 1013.9
20260903124704 80 221 3.0 3.0 0.00 0.31 0.28 100 1013.9
20260903123704 80 218 0.0 2.0 0.00 0.31 0.28 100 1013.9
20260903121703 78 241 0.0 0.0 0.00 0.31 0.28 100 1013.9
20260903120704 78 241 0.0 0.0 0.00 0.31 0.28 100 1013.9
20260903120204 78 241 0.0 0.0 0.00 0.31 0.28 100 1012.9
20260903113704 77 240 0.0 0.0 0.00 0.31 0.28 100 1013.9
20260903113204 77 240 0.0 0.0 0.00 0.31 0.28 100 1012.9
20260903111704 77 240 0.0 0.0 0.00 0.31 0.28 100 1012.9
20260903111204 77 240 0.0 0.0 0.00 0.31 0.28 100 1012.9
20260903110704 77 240 0.0 0.0 0.00 0.31 0.28 100 1012.9
20260903110204 77 240 0.0 0.0 0.00 0.31 0.28 100 1012.9
20260903104704 77 240 0.0 0.0 0.00 0.31 0.28 100 1012.9
20260903104204 77 240 0.0 0.0 0.00 0.31 0.28 100 1012.9
20260903103704 77 240 0.0 0.0 0.00 0.31 0.28 100 1012.9
20260903103204 77 240 0.0 0.0 0.00 0.31 0.28 100 1012.9
20260903101704 77 240 0.0 0.0 0.00 0.31 0.28 100 1012.9
20260903101203 77 240 0.0 0.0 0.00 0.31 0.28 100 1012.9
20260903094704 77 240 0.0 0.0 0.00 0.31 0.28 100 1012.9
20260903093704 77 240 0.0 0.0 0.00 0.31 0.28 100 1012.9
20260903091704 77 240 0.0 0.0 0.00 0.31 0.28 100 1012.9
20260903091204 77 240 0.0 0.0 0.00 0.31 0.28 100 1012.9
20260903090704 77 240 0.0 0.0 0.00 0.31 0.28 100 1012.9
20260903090204 78 240 0.0 0.0 0.00 0.31 0.28 100 1011.9
20260903084704 78 240 0.0 0.0 0.00 0.31 0.28 100 1012.9
20260903084203 78 240 0.0 0.0 0.00 0.31 0.28 100 1012.9
20260903083703 78 240 0.0 0.0 0.00 0.31 0.28 100 1012.9
20260903083204 78 240 0.0 0.0 0.00 0.31 0.28 100 1012.0
20260903081703 78 240 0.0 0.0 0.00 0.31 0.28 100 1012.9
20260903081204 78 240 0.0 2.0 0.00 0.31 0.28 100 1012.9
20260903080704 78 240 0.0 2.0 0.00 0.31 0.28 100 1012.9
20260903080203 78 240 1.0 2.0 0.00 0.31 0.28 100 1012.9
20260903074704 78 210 0.0 0.0 0.00 0.31 0.28 100 1012.9
20260903074203 78 210 0.0 0.0 0.00 0.31 0.28 100 1012.9
20260903073703 78 211 0.0 2.0 0.00 0.31 0.28 100 1012.9
20260903073204 78 188 0.0 3.0 0.00 0.31 0.28 100 1012.9
20260903071704 78 187 0.0 0.0 0.00 0.31 0.28 100 1012.9
20260903070703 78 140 0.0 3.0 0.00 0.31 0.28 100 1012.9
20260903070203 78 181 0.0 0.0 0.00 0.31 0.28 100 1012.9
20260903064704 78 211 0.0 0.0 0.00 0.31 0.28 100 1012.9
20260903064204 78 213 0.0 0.0 0.00 0.31 0.28 100 1012.9
20260903063204 78 214 0.0 3.0 0.00 0.31 0.28 100 1012.9
20260903061703 79 203 0.0 3.0 0.04 0.31 0.28 100 1012.9
20260903060704 79 226 1.0 3.0 0.04 0.31 0.28 100 1012.9
20260903060204 79 229 2.0 3.0 0.04 0.31 0.28 100 1012.9
20260903054703 79 253 0.0 3.0 0.28 0.31 0.28 100 1012.9
20260903054204 79 226 0.0 6.0 0.28 0.31 0.28 100 1012.9
20260903053703 79 197 2.0 5.0 0.28 0.31 0.28 100 1012.9
20260903053203 79 184 0.0 6.0 0.28 0.31 0.28 100 1013.9
20260903051704 79 180 3.0 6.0 0.24 0.28 0.24 100 1013.9
20260903051203 79 189 4.0 6.0 0.24 0.28 0.24 100 1013.9
20260903050204 80 197 6.0 13.0 0.24 0.28 0.24 100 1013.9
20260903044703 80 170 8.0 13.0 0.00 0.04 0.00 100 1013.9
20260903043205 81 212 0.0 0.0 0.00 0.04 0.00 100 1013.9
20260903041703 81 212 0.0 0.0 0.00 0.04 0.00 100 1014.9
20260903041204 81 212 0.0 0.0 0.00 0.04 0.00 100 1014.9
20260903040704 81 211 0.0 0.0 0.00 0.04 0.00 100 1014.9
20260903040204 81 212 0.0 0.0 0.00 0.04 0.00 100 1013.9
20260903034704 81 126 0.0 0.0 0.00 0.04 0.04 100 1014.8
20260903033206 81 126 0.0 0.0 0.00 0.04 0.04 100 1014.9
20260903031704 81 126 0.0 0.0 0.00 0.04 0.04 100 1013.9
20260903030705 81 126 0.0 0.0 0.00 0.04 0.04 100 1013.9
20260903024704 81 74 0.0 0.0 0.00 0.04 0.04 100 1013.9
20260903024204 81 71 0.0 0.0 0.00 0.04 0.04 100 1013.9
20260903023703 82 109 0.0 0.0 0.00 0.04 0.04 100 1013.9
20260903021704 82 109 0.0 0.0 0.00 0.04 0.04 100 1013.9
20260903020704 82 109 0.0 0.0 0.00 0.04 0.04 100 1013.9
20260903020204 82 109 0.0 0.0 0.00 0.04 0.04 99 1013.9
20260903014204 82 109 0.0 0.0 0.00 0.04 0.04 98 1013.9
20260903013203 82 109 0.0 0.0 0.00 0.04 0.04 98 1013.9
20260903011703 82 102 0.0 0.0 0.00 0.04 0.04 97 1013.9
20260903011205 82 102 0.0 0.0 0.00 0.04 0.04 97 1013.9
20260903010203 82 98 0.0 3.0 0.00 0.04 0.04 97 1012.9
20260903004204 82 95 2.0 3.0 0.00 0.04 0.04 96 1012.9
20260903003703 82 93 1.0 3.0 0.00 0.04 0.04 96 1012.9
20260903003204 82 93 3.0 6.0 0.00 0.04 0.04 96 1012.9
20260903001704 82 130 2.0 3.0 0.00 0.04 0.04 96 1012.9
20260903000704 82 107 3.0 6.0 0.00 0.04 0.04 96 1012.9
20260903000205 82 99 2.0 6.0 0.00 0.04 0.04 96 1012.9
20260902234703 83 120 1.0 3.0 0.00 0.04 0.04 95 1012.9
20260902234203 83 105 3.0 8.0 0.00 0.04 0.04 95 1012.9
20260902233703 83 106 5.0 6.0 0.00 0.04 0.04 95 1012.9
20260902233203 83 119 5.0 9.0 0.00 0.04 0.04 95 1012.9
20260902231704 83 106 6.0 9.0 0.00 0.04 0.04 94 1012.9
20260902231204 83 99 6.0 8.0 0.00 0.04 0.04 94 1012.9
20260902230704 83 98 6.0 9.0 0.00 0.04 0.04 93 1012.9
20260902230204 83 81 6.0 9.0 0.00 0.04 0.04 93 1012.9
20260902224204 84 98 6.0 8.0 0.00 0.04 0.04 89 1012.9
20260902223704 84 100 6.0 8.0 0.00 0.04 0.04 89 1012.9
20260902223203 84 103 3.0 8.0 0.00 0.04 0.04 89 1012.9
20260902221704 85 100 5.0 7.0 0.00 0.04 0.04 88 1012.9
20260902221203 85 84 5.0 7.0 0.00 0.04 0.04 88 1012.9
20260902220203 85 110 4.0 9.0 0.00 0.04 0.04 89 1012.9
20260902214704 85 110 6.0 8.0 0.00 0.04 0.04 88 1012.9
20260902214203 85 85 7.0 9.0 0.00 0.04 0.04 88 1012.9
20260902213204 85 84 7.0 9.0 0.00 0.04 0.04 88 1012.9
20260902211705 86 91 6.0 8.0 0.00 0.04 0.04 88 1012.9
20260902210704 86 75 7.0 8.0 0.00 0.04 0.04 87 1012.9
20260902210203 86 63 6.0 9.0 0.00 0.04 0.04 86 1012.9
20260902204704 86 69 3.0 9.0 0.00 0.04 0.04 88 1012.9
20260902203703 86 79 6.0 9.0 0.00 0.04 0.04 87 1012.9
20260902203203 87 88 8.0 12.0 0.00 0.04 0.04 87 1012.9
20260902201203 87 59 6.0 8.0 0.00 0.04 0.04 84 1012.9
20260902200703 87 68 6.0 9.0 0.00 0.04 0.04 84 1012.9
20260902200205 87 98 4.0 8.0 0.00 0.04 0.04 83 1012.9
20260902194704 87 77 4.0 6.0 0.00 0.04 0.04 87 1012.9
20260902194204 87 144 5.0 6.0 0.00 0.04 0.04 88 1012.9
20260902193205 86 96 5.0 8.0 0.00 0.08 0.04 88 1013.9